H1 CPF 2 NER 2024 12 20 9 355 01 glonass131 H2 1301901 9131 39155 2024 12 20 0 0 0 2024 12 23 23 45 0 900 1 1 0 0 0 1 H9 10 0 60664 0.00000 0 21965782.896 -4551178.474 -12168613.438 10 0 60664 900.00000 0 23299564.002 -4688408.621 -9317786.237 10 0 60664 1800.00000 0 24258142.809 -4905480.849 -6286359.421 10 0 60664 2700.00000 0 24820467.649 -5148490.377 -3133183.995 10 0 60664 3600.00000 0 24978701.090 -5361244.573 80630.676 10 0 60664 4500.00000 0 24738442.544 -5487859.883 3292894.574 10 0 60664 5400.00000 0 24118410.729 -5475344.823 6441528.556 10 0 60664 6300.00000 0 23149601.559 -5276061.137 9465747.640 10 0 60664 7200.00000 0 21873958.269 -4849960.908 12307214.490 10 0 60664 8100.00000 0 20342610.230 -4166507.125 14911142.608 10 0 60664 9000.00000 0 18613753.783 -3206198.414 17227329.908 10 0 60664 9900.00000 0 16750262.710 -1961635.038 19211104.896 10 0 60664 10800.00000 0 14817126.365 -438081.998 20824169.364 10 0 60664 11700.00000 0 12878819.908 1346494.808 22035323.239 10 0 60664 12600.00000 0 10996713.704 3361922.168 22821059.169 10 0 60664 13500.00000 0 9226627.210 5566824.494 23166016.429 10 0 60664 14400.00000 0 7616626.939 7910101.250 23063285.780 10 0 60664 15300.00000 0 6205158.494 10332818.826 22514559.055 10 0 60664 16200.00000 0 5019589.479 12770441.919 21530119.535 10 0 60664 17100.00000 0 4075223.877 15155315.250 20128671.539 10 0 60664 18000.00000 0 3374829.678 17419295.496 18337010.204 10 0 60664 18900.00000 0 2908700.846 19496426.325 16189535.181 10 0 60664 19800.00000 0 2655252.852 21325546.489 13727614.802 10 0 60664 20700.00000 0 2582128.814 22852722.472 10998810.325 10 0 60664 21600.00000 0 2647771.649 24033403.284 8055972.939 10 0 60664 22500.00000 0 2803397.500 24834205.494 4956229.240 10 0 60664 23400.00000 0 2995287.918 25234251.224 1759873.900 10 0 60664 24300.00000 0 3167303.810 25226000.086 -1470809.151 10 0 60664 25200.00000 0 3263513.678 24815537.257 -4672773.428 10 0 60664 26100.00000 0 3230822.785 24022303.057 -7783459.089 10 0 60664 27000.00000 0 3021489.054 22878273.566 -10742038.215 10 0 60664 27900.00000 0 2595415.743 21426625.826 -13490629.390 10 0 60664 28800.00000 0 1922120.282 19719943.866 -15975455.173 10 0 60664 29700.00000 0 982292.495 17818042.024 -18147917.251 10 0 60664 30600.00000 0 -231126.610 15785498.894 -19965566.028 10 0 60664 31500.00000 0 -1712393.307 13689007.835 -21392943.852 10 0 60664 32400.00000 0 -3442961.574 11594657.778 -22402284.265 10 0 60664 33300.00000 0 -5392035.956 9565260.679 -22974053.119 10 0 60664 34200.00000 0 -7517653.338 7657839.453 -23097321.188 10 0 60664 35100.00000 0 -9768247.228 5921382.597 -22769961.804 10 0 60664 36000.00000 0 -12084627.536 4394959.508 -21998671.006 10 0 60664 36900.00000 0 -14402291.313 3106274.387 -20798811.521 10 0 60664 37800.00000 0 -16653966.215 2070717.215 -19194085.575 10 0 60664 38700.00000 0 -18772279.158 1290948.661 -17216044.990 10 0 60664 39600.00000 0 -20692437.914 757032.822 -14903450.126 10 0 60664 40500.00000 0 -22354813.600 447108.424 -12301492.068 10 0 60664 41400.00000 0 -23707316.893 328566.479 -9460894.805 10 0 60664 42300.00000 0 -24707470.076 359681.432 -6436916.222 10 0 60664 43200.00000 0 -25324090.357 491624.284 -3288268.247 10 0 60664 44100.00000 0 -25538516.590 670770.814 -75977.590 10 0 60664 45000.00000 0 -25345330.710 841206.459 3137790.730 10 0 60664 45900.00000 0 -24752546.451 947321.981 6290924.779 10 0 60664 46800.00000 0 -23781259.769 936391.084 9322549.898 10 0 60664 47700.00000 0 -22464777.312 761022.541 12174184.114 10 0 60664 48600.00000 0 -20847260.357 381385.129 14790844.183 10 0 60664 49500.00000 0 -18981940.981 -232886.574 17122082.925 10 0 60664 50400.00000 0 -16928984.278 -1101184.150 19122940.012 10 0 60664 51300.00000 0 -14753084.130 -2230877.443 20754789.979 10 0 60664 52200.00000 0 -12520890.499 -3616770.476 21986073.083 10 0 60664 53100.00000 0 -10298372.705 -5241084.668 22792896.479 10 0 60664 54000.00000 0 -8148225.558 -7073971.676 23159495.181 10 0 60664 54900.00000 0 -6127423.553 -9074536.980 23078544.357 10 0 60664 55800.00000 0 -4285022.657 -11192334.677 22551316.614 10 0 60664 56700.00000 0 -2660299.497 -13369274.828 21587680.208 10 0 60664 57600.00000 0 -1281304.647 -15541867.589 20205936.480 10 0 60664 58500.00000 0 -163890.331 -17643714.035 18432497.369 10 0 60664 59400.00000 0 688746.046 -19608142.657 16301406.576 10 0 60664 60300.00000 0 1285982.028 -21370883.493 13853710.787 10 0 60664 61200.00000 0 1649155.429 -22872668.997 11136690.442 10 0 60664 62100.00000 0 1810438.779 -24061652.607 8202962.561 10 0 60664 63000.00000 0 1811248.636 -24895542.338 5109471.213 10 0 60664 63900.00000 0 1700255.705 -25343357.618 1916384.194 10 0 60664 64800.00000 0 1531079.518 -25386732.725 -1314082.875 10 0 60664 65700.00000 0 1359765.754 -25020708.899 -4518891.519 10 0 60664 66600.00000 0 1242154.554 -24253978.803 -7635429.147 10 0 60664 67500.00000 0 1231253.729 -23108570.546 -10602755.171 10 0 60664 68400.00000 0 1374731.169 -21618982.874 -13362817.702 10 0 60664 69300.00000 0 1712636.120 -19830807.137 -15861614.391 10 0 60664 70200.00000 0 2275449.189 -17798894.278 -18050272.131 10 0 60664 71100.00000 0 3082546.757 -15585145.023 -19886022.260 10 0 60664 72000.00000 0 4141147.187 -13256017.923 -21333050.336 10 0 60664 72900.00000 0 5445785.099 -10879862.058 -22363202.725 10 0 60664 73800.00000 0 6978336.761 -8524188.427 -22956535.676 10 0 60664 74700.00000 0 8708595.535 -6252996.288 -23101696.286 10 0 60664 75600.00000 0 10595372.426 -4124267.628 -22796128.754 10 0 60664 76500.00000 0 12588074.207 -2187735.005 -22046103.154 10 0 60664 77400.00000 0 14628691.223 -483015.560 -20866567.888 10 0 60664 78300.00000 0 16654109.823 961812.374 -19280830.637 10 0 60664 79200.00000 0 18598651.004 2131133.050 -17320076.075 10 0 60664 80100.00000 0 20396727.813 3022182.090 -15022731.807 10 0 60664 81000.00000 0 21985509.719 3644887.779 -12433696.766 10 0 60664 81900.00000 0 23307482.576 4021175.511 -9603448.744 10 0 60664 82800.00000 0 24312797.876 4183768.424 -6587049.809 10 0 60664 83700.00000 0 24961314.463 4174538.036 -3443069.864 10 0 60664 84600.00000 0 25224249.272 4042476.996 -232449.783 10 0 60664 85500.00000 0 25085370.361 3841381.142 2982673.748 10 0 60665 0.00000 0 24541684.836 3627339.431 6140159.090 10 0 60665 900.00000 0 23603594.705 3456137.387 9179045.741 10 0 60665 1800.00000 0 22294516.941 3380682.909 12040709.876 10 0 60665 2700.00000 0 20649983.693 3448561.063 14669974.339 10 0 60665 3600.00000 0 18716261.199 3699819.371 17016149.416 10 0 60665 4500.00000 0 16548544.408 4165074.902 19033988.174 10 0 60665 5400.00000 0 14208801.223 4864021.257 20684539.806 10 0 60665 6300.00000 0 11763354.007 5804397.287 21935886.500 10 0 60665 7200.00000 0 9280296.251 6981460.764 22763751.173 10 0 60665 8100.00000 0 6826848.892 8377989.943 23151965.466 10 0 60665 9000.00000 0 4466763.121 9964814.829 23092789.461 10 0 60665 9900.00000 0 2257874.955 11701858.599 22587076.624 10 0 60665 10800.00000 0 249911.043 13539649.031 21644279.839 10 0 60665 11700.00000 0 -1517364.460 15421240.408 20282296.691 10 0 60665 12600.00000 0 -3015585.328 17284469.236 18527154.722 10 0 60665 13500.00000 0 -4228740.896 19064452.698 16412540.102 10 0 60665 14400.00000 0 -5153614.878 20696227.824 13979175.974 10 0 60665 15300.00000 0 -5799685.413 22117422.354 11274059.793 10 0 60665 16200.00000 0 -6188488.760 23270845.690 8349572.032 10 0 60665 17100.00000 0 -6352471.592 24106890.399 5262471.680 10 0 60665 18000.00000 0 -6333378.858 24585641.446 2072796.979 10 0 60665 18900.00000 0 -6180244.496 24678601.796 -1157307.520 10 0 60665 19800.00000 0 -5947070.003 24369958.533 -4364814.160 10 0 60665 20700.00000 0 -5690290.100 23657332.884 -7487060.395 10 0 60665 21600.00000 0 -5466134.750 22551979.548 -10462995.674 10 0 60665 22500.00000 0 -5328001.901 21078424.508 -13234400.208 10 0 60665 23400.00000 0 -5323955.405 19273555.045 -15747049.124 10 0 60665 24300.00000 0 -5494457.412 17185199.694 -17951796.690 10 0 60665 25200.00000 0 -5870434.361 14870258.200 -19805557.106 10 0 60665 26100.00000 0 -6471761.071 12392461.309 -21272160.835 10 0 60665 27000.00000 0 -7306229.012 9819856.148 -22323068.510 10 0 60665 27900.00000 0 -8369043.442 7222124.637 -22937927.938 10 0 60665 28800.00000 0 -9642870.894 4667849.212 -23104963.402 10 0 60665 29700.00000 0 -11098434.471 2221841.738 -22821190.471 10 0 60665 30600.00000 0 -12695630.650 -57351.904 -22092453.352 10 0 60665 31500.00000 0 -14385118.989 -2119667.335 -20933285.785 10 0 60665 32400.00000 0 -16110316.026 -3925365.824 -19366600.110 10 0 60665 33300.00000 0 -17809707.877 -5446432.070 -17423212.628 10 0 60665 34200.00000 0 -19419382.897 -6667470.082 -15141216.566 10 0 60665 35100.00000 0 -20875677.156 -7586063.244 -12565216.759 10 0 60665 36000.00000 0 -22117821.361 -8212587.461 -9745442.616 10 0 60665 36900.00000 0 -23090478.505 -8569489.193 -6736758.014 10 0 60665 37800.00000 0 -23746066.808 -8690062.479 -3597588.334 10 0 60665 38700.00000 0 -24046772.142 -8616779.525 -388786.019 10 0 60665 39600.00000 0 -23966167.539 -8399247.516 2827543.253 10 0 60665 40500.00000 0 -23490374.101 -8091879.172 5989231.402 10 0 60665 41400.00000 0 -22618716.951 -7751375.678 9035233.711 10 0 60665 42300.00000 0 -21363850.528 -7434127.618 11906787.844 10 0 60665 43200.00000 0 -19751349.207 -7193642.197 14548525.418 10 0 60665 44100.00000 0 -17818781.074 -7078103.412 16909516.740 10 0 60665 45000.00000 0 -15614303.120 -7128165.887 18944230.626 10 0 60665 45900.00000 0 -13194835.307 -7375073.318 20613392.999 10 0 60665 46800.00000 0 -10623887.588 -7839179.089 21884729.680 10 0 60665 47700.00000 0 -7969127.558 -8528930.417 22733580.657 10 0 60665 48600.00000 0 -5299786.808 -9440358.715 23143375.106 10 0 60665 49500.00000 0 -2684010.448 -10557098.610 23105958.506 10 0 60665 50400.00000 0 -186256.833 -11850936.816 22621765.294 10 0 60665 51300.00000 0 2135147.151 -13282870.665 21699832.737 10 0 60665 52200.00000 0 4230195.639 -14804635.353 20357654.096 10 0 60665 53100.00000 0 6059048.174 -16360639.446 18620871.646 10 0 60665 54000.00000 0 7593452.381 -17890230.991 16522812.865 10 0 60665 54900.00000 0 8817684.940 -19330202.082 14103875.894 10 0 60665 55800.00000 0 9728970.255 -20617428.813 11410773.454 10 0 60665 56700.00000 0 10337357.538 -21691536.685 8495647.437 10 0 60665 57600.00000 0 10665059.659 -22497479.191 5415069.472 10 0 60665 58500.00000 0 10745279.890 -22987919.663 2228945.748 10 0 60665 59400.00000 0 10620574.873 -23125313.716 -1000652.902 10 0 60665 60300.00000 0 10340822.502 -22883601.423 -4210712.385 10 0 60665 61200.00000 0 9960881.091 -22249434.469 -7338522.989 10 0 60665 62100.00000 0 9538040.282 -21222883.145 -10322926.994 10 0 60665 63000.00000 0 9129373.804 -19817590.386 -13105539.460 10 0 60665 63900.00000 0 8789108.992 -18060364.131 -15631915.661 10 0 60665 64800.00000 0 8566127.596 -15990223.809 -17852639.763 10 0 60665 65700.00000 0 8501706.765 -13656940.679 -19724311.155 10 0 60665 66600.00000 0 8627598.581 -11119133.947 -21210407.243 10 0 60665 67500.00000 0 8964531.489 -8442003.799 -22282004.628 10 0 60665 68400.00000 0 9521198.332 -5694798.131 -22918343.973 10 0 60665 69300.00000 0 10293774.156 -2948120.883 -23107227.635 10 0 60665 70200.00000 0 11265983.749 -271196.235 -22845243.004 10 0 60665 71100.00000 0 12409714.928 2270795.919 -22137808.474 10 0 60665 72000.00000 0 13686149.998 4619201.487 -20999042.788 10 0 60665 72900.00000 0 15047365.732 6724087.646 -19451462.249 10 0 60665 73800.00000 0 16438332.449 8546062.076 -17525513.743 10 0 60665 74700.00000 0 17799226.171 10057642.341 -15258954.735 10 0 60665 75600.00000 0 19067955.163 11244121.416 -12696094.234 10 0 60665 76500.00000 0 20182793.703 12103896.830 -9886911.191 10 0 60665 77400.00000 0 21085012.155 12648253.643 -6886068.898 10 0 60665 78300.00000 0 21721393.283 12900614.271 -3751845.547 10 0 60665 79200.00000 0 22046530.210 12895290.200 -545002.261 10 0 60665 80100.00000 0 22024811.147 12675790.943 2672389.290 10 0 60665 81000.00000 0 21632009.494 12292763.411 5838137.354 10 0 60665 81900.00000 0 20856414.704 11801649.504 8891116.540 10 0 60665 82800.00000 0 19699458.326 11260160.607 11772428.527 10 0 60665 83700.00000 0 18175810.484 10725674.505 14426516.381 10 0 60665 84600.00000 0 16312943.306 10252662.694 16802212.876 10 0 60665 85500.00000 0 14150179.601 9890254.422 18853704.760 10 0 60666 0.00000 0 11737265.939 9680037.787 20541396.481 10 0 60666 900.00000 0 9132526.205 9654188.199 21832659.459 10 0 60666 1800.00000 0 6400673.290 9834001.640 22702451.943 10 0 60666 2700.00000 0 3610362.477 10228893.142 23133801.659 10 0 60666 3600.00000 0 831587.907 10835903.054 23118140.131 10 0 60666 4500.00000 0 -1866974.392 11639732.787 22655482.976 10 0 60666 5400.00000 0 -4420569.420 12613310.665 21754451.597 10 0 60666 6300.00000 0 -6770806.481 13718866.929 20432134.196 10 0 60666 7200.00000 0 -8867842.844 14909476.039 18713786.579 10 0 60666 8100.00000 0 -10672217.695 16131004.905 16632375.894 10 0 60666 9000.00000 0 -12156259.763 17324388.274 14227973.274 10 0 60666 9900.00000 0 -13305008.828 18428138.013 11547004.415 10 0 60666 10800.00000 0 -14116610.971 19380982.251 8641370.139 10 0 60666 11700.00000 0 -14602169.109 20124523.550 5567452.085 10 0 60666 12600.00000 0 -14785053.168 20605803.263 2385021.705 10 0 60666 13500.00000 0 -14699697.426 20779661.990 -843926.620 10 0 60666 14400.00000 0 -14389934.792 20610793.702 -4056395.082 10 0 60666 15300.00000 0 -13906938.282 20075403.450 -7189629.498 10 0 60666 16200.00000 0 -13306857.514 19162395.100 -10182367.596 10 0 60666 17100.00000 0 -12648251.905 17874035.595 -12976061.782 10 0 60666 18000.00000 0 -11989431.595 16226064.889 -15516049.798 10 0 60666 18900.00000 0 -11385821.493 14247244.866 -17752647.818 10 0 60666 19800.00000 0 -10887462.963 11978365.113 -19642142.276 10 0 60666 20700.00000 0 -10536761.659 9470747.204 -21147659.116 10 0 60666 21600.00000 0 -10366578.981 6784310.983 -22239892.218 10 0 60666 22500.00000 0 -10398749.382 3985285.208 -22897676.129 10 0 60666 23400.00000 0 -10643086.807 1143660.136 -23108391.984 10 0 60666 24300.00000 0 -11096921.947 -1669509.762 -22868199.376 10 0 60666 25200.00000 0 -11745188.764 -4384838.871 -22182090.894 10 0 60666 26100.00000 0 -12561054.866 -6937264.341 -21063769.908 10 0 60666 27000.00000 0 -13507066.956 -9268510.063 -19535355.913 10 0 60666 27900.00000 0 -14536760.689 -11329258.799 -17626925.225 10 0 60666 28800.00000 0 -15596664.775 -13080943.553 -15375898.049 10 0 60666 29700.00000 0 -16628612.941 -14497086.073 -12826285.774 10 0 60666 30600.00000 0 -17572264.891 -15564129.827 -10027814.878 10 0 60666 31500.00000 0 -18367729.298 -16281736.389 -7034945.887 10 0 60666 32400.00000 0 -18958178.304 -16662536.659 -3905807.488 10 0 60666 33300.00000 0 -19292344.132 -16731351.124 -701067.073 10 0 60666 34200.00000 0 -19326793.913 -16523915.021 2517240.178 10 0 60666 35100.00000 0 -19027888.813 -16085164.569 5686901.406 10 0 60666 36000.00000 0 -18373347.029 -15467157.862 8746713.187 10 0 60666 36900.00000 0 -17353346.815 -14726718.448 11637643.916 10 0 60666 37800.00000 0 -15971124.845 -13922900.333 14303950.754 10 0 60666 38700.00000 0 -14243045.751 -13114379.772 16694231.493 10 0 60666 39600.00000 0 -12198140.206 -12356881.654 18762393.249 10 0 60666 40500.00000 0 -9877130.185 -11700746.380 20468521.440 10 0 60666 41400.00000 0 -7330980.486 -11188737.136 21779634.339 10 0 60666 42300.00000 0 -4619034.502 -10854177.571 22670310.294 10 0 60666 43200.00000 0 -1806808.636 -10719496.562 23123176.695 10 0 60666 44100.00000 0 1036466.428 -10795240.466 23129251.820 10 0 60666 45000.00000 0 3840459.060 -11079594.559 22688132.792 10 0 60666 45900.00000 0 6536399.558 -11558434.952 21808025.092 10 0 60666 46800.00000 0 9059684.891 -12205910.899 20505611.461 10 0 60666 47700.00000 0 11352319.209 -12985535.750 18805760.491 10 0 60666 48600.00000 0 13365089.851 -13851743.781 16741077.911 10 0 60666 49500.00000 0 15059388.503 -14751850.446 14351306.416 10 0 60666 50400.00000 0 16408600.795 -15628336.200 11682582.885 10 0 60666 51300.00000 0 17399004.879 -16421359.520 8786564.915 10 0 60666 52200.00000 0 18030139.411 -17071394.086 5719441.672 10 0 60666 53100.00000 0 18314623.396 -17521878.519 2540847.080 10 0 60666 54000.00000 0 18277433.581 -17721765.406 -687303.920 10 0 60666 54900.00000 0 17954668.376 -17627859.499 -3902032.923 10 0 60666 55800.00000 0 17391849.764 -17206843.070 -7040544.405 10 0 60666 56700.00000 0 16641835.101 -16436899.296 -10041474.602 10 0 60666 57600.00000 0 15762428.127 -15308861.434 -12846116.183 10 0 60666 58500.00000 0 14813792.162 -13826835.998 -15399592.077 10 0 60666 59400.00000 0 13855777.330 -12008271.014 -17651952.937 10 0 60666 60300.00000 0 12945277.645 -9883464.650 -19559174.434 10 0 60666 61200.00000 0 12133732.460 -7494534.093 -21084032.916 10 0 60666 62100.00000 0 11464880.225 -4893888.030 -22196841.041 10 0 60666 63000.00000 0 10972861.181 -2142267.653 -22876028.343 10 0 60666 63900.00000 0 10680749.965 693560.355 -23108555.421 10 0 60666 64800.00000 0 10599580.025 3543360.758 -22890154.338 10 0 60666 65700.00000 0 10727900.002 6336128.245 -22225391.739 10 0 60666 66600.00000 0 11051879.054 9002813.612 -21127555.103 10 0 60666 67500.00000 0 11545954.326 11478963.357 -19618366.241 10 0 60666 68400.00000 0 12173990.565 13707162.856 -17727529.694 10 0 60666 69300.00000 0 12890900.274 15639182.299 -15492126.874 10 0 60666 70200.00000 0 13644653.550 17237737.827 -12955869.718 10 0 60666 71100.00000 0 14378590.809 18477797.134 -10168230.091 10 0 60666 72000.00000 0 15033939.425 19347378.257 -7183463.328 10 0 60666 72900.00000 0 15552427.496 19847811.836 -4059545.942 10 0 60666 73800.00000 0 15878884.592 19993459.500 -857048.765 10 0 60666 74700.00000 0 15963720.681 19810903.638 2362032.482 10 0 60666 75600.00000 0 15765180.160 19337645.361 5535466.823 10 0 60666 76500.00000 0 15251277.767 18620367.313 8601975.700 10 0 60666 77400.00000 0 14401336.899 17712835.513 11502396.999 10 0 60666 78300.00000 0 13207067.237 16673528.312 14180804.572 10 0 60666 79200.00000 0 11673137.620 15563091.199 16585563.622 10 0 60666 80100.00000 0 9817220.799 14441722.796 18670303.752 10 0 60666 81000.00000 0 7669507.869 13366599.512 20394793.096 10 0 60666 81900.00000 0 5271711.439 12389444.422 21725698.699 10 0 60666 82800.00000 0 2675596.955 11554339.898 22637220.154 10 0 60666 83700.00000 0 -58899.542 10895873.629 23111585.477 10 0 60666 84600.00000 0 -2865892.416 10437694.312 23139400.283 10 0 60666 85500.00000 0 -5676017.577 10191536.994 22719843.336 10 0 60667 0.00000 0 -8419054.573 10156759.232 21860703.955 10 0 60667 900.00000 0 -11026595.452 10320408.841 20578258.422 10 0 60667 1800.00000 0 -13434648.487 10657822.401 18896986.816 10 0 60667 2700.00000 0 -15586075.062 11133731.904 16849131.633 10 0 60667 3600.00000 0 -17432755.326 11703835.866 14474104.900 10 0 60667 4500.00000 0 -18937393.462 12316771.343 11817752.137 10 0 60667 5400.00000 0 -20074885.716 12916405.837 8931484.971 10 0 60667 6300.00000 0 -20833192.076 13444353.706 5871297.232 10 0 60667 7200.00000 0 -21213672.788 13842611.004 2696682.433 10 0 60667 8100.00000 0 -21230873.318 14056196.573 -530526.775 10 0 60667 9000.00000 0 -20911764.879 14035685.695 -3747374.166 10 0 60667 9900.00000 0 -20294471.212 13739526.316 -6891025.557 10 0 60667 10800.00000 0 -19426534.863 13136036.423 -9900018.263 10 0 60667 11700.00000 0 -18362796.602 12204994.404 -12715487.628 10 0 60667 12600.00000 0 -17162978.906 10938751.647 -15282343.989 10 0 60667 13500.00000 0 -15889077.658 9342817.276 -17550374.462 10 0 60667 14400.00000 0 -14602674.770 7435888.004 -19475245.636 10 0 60667 15300.00000 0 -13362287.889 5249320.381 -21019385.620 10 0 60667 16200.00000 0 -12220871.501 2826067.064 -22152726.856 10 0 60667 17100.00000 0 -11223576.800 219122.086 -22853294.509 10 0 60667 18000.00000 0 -10405865.956 -2510458.694 -23107628.931 10 0 60667 18900.00000 0 -9792060.483 -5295877.653 -22911034.584 10 0 60667 19800.00000 0 -9394384.142 -8067157.446 -22267651.753 10 0 60667 20700.00000 0 -9212539.067 -10753836.562 -21190351.269 10 0 60667 21600.00000 0 -9233830.566 -13287684.932 -19700456.191 10 0 60667 22500.00000 0 -9433832.456 -15605326.001 -17827297.918 10 0 60667 23400.00000 0 -9777561.786 -17650656.286 -15607617.471 10 0 60667 24300.00000 0 -10221110.377 -19376962.851 -13084825.542 10 0 60667 25200.00000 0 -10713661.696 -20748652.393 -10308137.457 10 0 60667 26100.00000 0 -11199805.858 -21742522.513 -7331601.358 10 0 60667 27000.00000 0 -11622053.723 -22348525.299 -4213039.546 10 0 60667 27900.00000 0 -11923443.422 -22569994.755 -1012924.197 10 0 60667 28800.00000 0 -12050129.570 -22423331.908 2206790.539 10 0 60667 29700.00000 0 -11953846.892 -21937163.780 5383857.714 10 0 60667 30600.00000 0 -11594145.896 -21151013.936 8456925.875 10 0 60667 31500.00000 0 -10940308.149 -20113541.792 11366704.686 10 0 60667 32400.00000 0 -9972862.249 -18880425.081 14057086.983 10 0 60667 33300.00000 0 -8684638.324 -17511973.933 16476207.680 10 0 60667 34200.00000 0 -7081317.573 -16070575.197 18577421.103 10 0 60667 35100.00000 0 -5181454.006 -14618072.161 20320180.176 10 0 60667 36000.00000 0 -3015966.728 -13213186.944 21670802.573 10 0 60667 36900.00000 0 -627122.166 -11909090.782 22603110.706 10 0 60667 37800.00000 0 1932953.906 -10751221.444 23098934.488 10 0 60667 38700.00000 0 4604175.880 -9775437.035 23148467.785 10 0 60667 39600.00000 0 7320734.051 -9006582.189 22750471.569 10 0 60667 40500.00000 0 10013577.463 -8457526.154 21912319.012 10 0 60667 41400.00000 0 12613044.290 -8128713.527 20649880.102 10 0 60667 42300.00000 0 15051533.387 -8008247.798 18987245.798 10 0 60667 43200.00000 0 17266108.132 -8072506.146 16956294.504 10 0 60667 44100.00000 0 19200925.310 -8287262.067 14596106.357 10 0 60667 45000.00000 0 20809387.865 -8609271.056 11952233.902 10 0 60667 45900.00000 0 22055930.743 -8988254.686 9075840.776 10 0 60667 46800.00000 0 22917363.347 -9369200.981 6022723.069 10 0 60667 47700.00000 0 23383710.065 -9694884.538 2852231.125 10 0 60667 48600.00000 0 23458511.023 -9908499.527 -373887.740 10 0 60667 49500.00000 0 23158568.074 -9956292.692 -3592702.715 10 0 60667 50400.00000 0 22513144.783 -9790082.509 -6741344.251 10 0 60667 51300.00000 0 21562652.992 -9369554.694 -9758253.973 10 0 60667 52200.00000 0 20356881.081 -8664233.306 -12584412.979 10 0 60667 53100.00000 0 18952839.415 -7655040.403 -15164521.849 10 0 60667 54000.00000 0 17412315.382 -6335374.923 -17448106.702 10 0 60667 54900.00000 0 15799243.370 -4711662.410 -19390527.280 10 0 60667 55800.00000 0 14177003.062 -2803350.411 -20953865.343 10 0 60667 56700.00000 0 12605762.450 -642348.595 -22107674.657 10 0 60667 57600.00000 0 11139979.573 1728063.071 -22829577.191 10 0 60667 58500.00000 0 9826169.656 4254811.683 -23105693.833 10 0 60667 59400.00000 0 8701032.206 6877026.997 -22930901.830 10 0 60667 60300.00000 0 7790016.433 9528370.296 -22308915.099 10 0 60667 61200.00000 0 7106383.981 12139597.548 -21252187.411 10 0 60667 62100.00000 0 6650806.109 14641248.537 -19781642.280 10 0 60667 63000.00000 0 6411509.323 16966348.860 -17926236.806 10 0 60667 63900.00000 0 6364960.010 19053011.882 -15722370.099 10 0 60667 64800.00000 0 6477055.743 20846832.663 -13213149.746 10 0 60667 65700.00000 0 6704769.829 22302975.389 -10447532.355 10 0 60667 66600.00000 0 6998176.965 23387869.252 -7479356.392 10 0 60667 67500.00000 0 7302772.431 24080444.668 -4366287.206 10 0 60667 68400.00000 0 7561985.704 24372861.274 -1168695.387 10 0 60667 69300.00000 0 7719781.965 24270700.412 2051509.539 10 0 60667 70200.00000 0 7723242.119 23792617.041 5232067.755 10 0 60667 71100.00000 0 7525013.595 22969468.258 8311557.943 10 0 60667 72000.00000 0 7085530.144 21842956.717 11230564.435 10 0 60667 72900.00000 0 6374908.898 20463846.741 13932801.807 10 0 60667 73800.00000 0 5374446.459 18889827.708 16366177.190 10 0 60667 74700.00000 0 4077652.369 17183113.260 18483771.873 10 0 60667 75600.00000 0 2490777.282 15407875.103 20244725.566 10 0 60667 76500.00000 0 632813.339 13627616.216 21615008.262 10 0 60667 77400.00000 0 -1465034.444 11902590.560 22568066.566 10 0 60667 78300.00000 0 -3760385.847 10287374.340 23085333.297 10 0 60667 79200.00000 0 -6201191.920 8828687.716 23156591.177 10 0 60667 80100.00000 0 -8727651.053 7563556.045 22780183.527 10 0 60667 81000.00000 0 -11274458.696 6517886.320 21963067.118 10 0 60667 81900.00000 0 -13773300.971 5705517.972 20720704.586 10 0 60667 82800.00000 0 -16155491.763 5127788.378 19076796.389 10 0 60667 83700.00000 0 -18354646.159 4773632.623 17062854.877 10 0 60667 84600.00000 0 -20309280.598 4620215.249 14717625.866 10 0 60667 85500.00000 0 -21965231.807 4634069.634 12086366.119 99